LRBS Weather Reports


Display with metric or nautical units.
time (UTC)temp
F
wind
direction
speed
MPH
gust
MPH
rain 1hr
in
rain 24hr
in
rain mn
in
humidity
%
barometer
mb
20260509023314 57 80 3.0 0.0 0.00 0.00 0.00 94 1013.0
20260509021814 57 70 6.0 0.0 0.00 0.00 0.00 94 1014.0
20260509020314 57 70 6.0 0.0 0.00 0.00 0.00 94 1014.0
20260509014814 59 50 8.0 0.0 0.00 0.00 0.00 88 1014.0
20260509013314 59 50 8.0 0.0 0.00 0.00 0.00 88 1014.0
20260509011814 59 60 7.0 0.0 0.00 0.00 0.00 94 1014.0
20260509010314 59 60 7.0 0.0 0.00 0.00 0.00 94 1014.0
20260509004814 59 70 6.0 0.0 0.00 0.00 0.00 94 1014.0
20260509003314 59 70 6.0 0.0 0.00 0.00 0.00 94 1014.0
20260509000313 59 60 3.0 0.0 0.00 0.00 0.00 94 1014.0
20260508234814 59 70 6.0 0.0 0.00 0.00 0.00 94 1014.0
20260508233314 59 70 6.0 0.0 0.00 0.00 0.00 94 1014.0
20260508231814 61 60 8.0 0.0 0.00 0.00 0.00 88 1014.0
20260508230314 61 60 8.0 0.0 0.00 0.00 0.00 88 1014.0
20260508224814 61 50 5.0 0.0 0.00 0.00 0.00 88 1014.0
20260508223314 61 50 5.0 0.0 0.00 0.00 0.00 88 1014.0
20260508221814 63 50 3.0 0.0 0.00 0.00 0.00 88 1015.0
20260508220314 63 50 3.0 0.0 0.00 0.00 0.00 88 1015.0
20260508214813 64 20 8.0 0.0 0.00 0.00 0.00 88 1015.0
20260508213314 64 20 8.0 0.0 0.00 0.00 0.00 88 1015.0
20260508211814 64 40 5.0 0.0 0.00 0.00 0.00 83 1015.0
20260508210314 64 40 5.0 0.0 0.00 0.00 0.00 83 1015.0
20260508204814 68 3.0 0.0 0.00 0.00 0.00 73 1014.0
20260508203314 68 3.0 0.0 0.00 0.00 0.00 73 1014.0
20260508201814 70 3.0 0.0 0.00 0.00 0.00 64 1014.0
20260508200314 70 3.0 0.0 0.00 0.00 0.00 64 1014.0
20260508194815 70 140 3.0 0.0 0.00 0.00 0.00 64 1013.0
20260508193314 70 140 3.0 0.0 0.00 0.00 0.00 64 1013.0
20260508191814 70 110 7.0 0.0 0.00 0.00 0.00 64 1013.0
20260508190314 70 110 7.0 0.0 0.00 0.00 0.00 64 1013.0
20260508184814 72 100 7.0 0.0 0.00 0.00 0.00 61 1013.0
20260508183314 72 100 7.0 0.0 0.00 0.00 0.00 61 1013.0
20260508181817 72 100 6.0 0.0 0.00 0.00 0.00 61 1013.0
20260508180314 72 100 6.0 0.0 0.00 0.00 0.00 61 1013.0
20260508174815 73 90 8.0 0.0 0.00 0.00 0.00 57 1013.0
20260508173314 73 90 8.0 0.0 0.00 0.00 0.00 57 1013.0
20260508171814 75 110 6.0 0.0 0.00 0.00 0.00 50 1012.0
20260508170314 75 110 6.0 0.0 0.00 0.00 0.00 50 1012.0
20260508164814 75 130 6.0 0.0 0.00 0.00 0.00 47 1012.0
20260508163315 75 130 6.0 0.0 0.00 0.00 0.00 47 1012.0
20260508161814 77 150 7.0 0.0 0.00 0.00 0.00 44 1012.0
20260508160314 77 150 7.0 0.0 0.00 0.00 0.00 44 1012.0
20260508154815 79 160 7.0 0.0 0.00 0.00 0.00 42 1013.0
20260508153314 79 160 7.0 0.0 0.00 0.00 0.00 42 1013.0
20260508151814 79 220 7.0 0.0 0.00 0.00 0.00 45 1013.0
20260508150314 79 220 7.0 0.0 0.00 0.00 0.00 45 1013.0
20260508144815 79 190 5.0 0.0 0.00 0.00 0.00 45 1013.0
20260508143314 79 190 5.0 0.0 0.00 0.00 0.00 45 1013.0
20260508141814 79 2.0 0.0 0.00 0.00 0.00 39 1013.0
20260508140314 79 2.0 0.0 0.00 0.00 0.00 39 1013.0
20260508134929 79 240 6.0 0.0 0.00 0.00 0.00 45 1013.0
20260508133314 79 240 6.0 0.0 0.00 0.00 0.00 45 1013.0
20260508131814 79 160 5.0 0.0 0.00 0.00 0.00 39 1013.0
20260508130315 79 160 5.0 0.0 0.00 0.00 0.00 39 1013.0
20260508124813 79 3.0 0.0 0.00 0.00 0.00 42 1014.0
20260508123314 79 3.0 0.0 0.00 0.00 0.00 42 1014.0
20260508121822 79 6.0 0.0 0.00 0.00 0.00 42 1014.0
20260508120313 79 6.0 0.0 0.00 0.00 0.00 42 1014.0
20260508114814 79 180 3.0 0.0 0.00 0.00 0.00 42 1014.0
20260508113314 79 180 3.0 0.0 0.00 0.00 0.00 42 1014.0
20260508111814 77 5.0 0.0 0.00 0.00 0.00 44 1014.0
20260508110314 77 5.0 0.0 0.00 0.00 0.00 44 1014.0
20260508104816 77 210 5.0 0.0 0.00 0.00 0.00 47 1015.0
20260508103329 77 230 7.0 0.0 0.00 0.00 0.00 44 1015.0
20260508101814 77 230 7.0 0.0 0.00 0.00 0.00 44 1015.0
20260508100314 77 230 7.0 0.0 0.00 0.00 0.00 44 1015.0
20260508094814 77 3.0 0.0 0.00 0.00 0.00 47 1015.0
20260508093314 77 3.0 0.0 0.00 0.00 0.00 47 1015.0
20260508091814 73 2.0 0.0 0.00 0.00 0.00 47 1015.0
20260508090314 73 2.0 0.0 0.00 0.00 0.00 47 1015.0
20260508084814 73 2.0 0.0 0.00 0.00 0.00 50 1015.0
20260508083314 73 2.0 0.0 0.00 0.00 0.00 50 1015.0
20260508081814 73 3.0 0.0 0.00 0.00 0.00 61 1016.0
20260508080314 73 3.0 0.0 0.00 0.00 0.00 61 1016.0
20260508074811 70 1.0 0.0 0.00 0.00 0.00 64 1016.0
20260508073314 70 1.0 0.0 0.00 0.00 0.00 64 1016.0
20260508071814 70 80 3.0 0.0 0.00 0.00 0.00 64 1016.0
20260508070315 70 80 3.0 0.0 0.00 0.00 0.00 64 1016.0
20260508064815 64 3.0 0.0 0.00 0.00 0.00 73 1016.0
20260508063314 64 3.0 0.0 0.00 0.00 0.00 73 1016.0
20260508061811 61 0 0.0 0.0 0.00 0.00 0.00 83 1016.0
20260508060314 61 0 0.0 0.0 0.00 0.00 0.00 83 1016.0
20260508054812 61 1.0 0.0 0.00 0.00 0.00 83 1016.0
20260508053314 61 1.0 0.0 0.00 0.00 0.00 83 1016.0
20260508051815 59 300 5.0 0.0 0.00 0.00 0.00 88 1016.0
20260508050315 59 300 5.0 0.0 0.00 0.00 0.00 88 1016.0
20260508044814 59 2.0 0.0 0.00 0.00 0.00 88 1015.0
20260508043314 59 2.0 0.0 0.00 0.00 0.00 88 1015.0
20260508041812 55 60 3.0 0.0 0.00 0.00 0.00 94 1015.0
20260508040315 55 60 3.0 0.0 0.00 0.00 0.00 94 1015.0
20260508034812 55 70 5.0 0.0 0.00 0.00 0.00 94 1015.0
20260508033314 55 70 5.0 0.0 0.00 0.00 0.00 94 1015.0
20260508031814 55 50 3.0 0.0 0.00 0.00 0.00 94 1015.0
20260508030314 55 50 3.0 0.0 0.00 0.00 0.00 94 1015.0
20260508024814 57 2.0 0.0 0.00 0.00 0.00 82 1015.0